Theta_e
285 285 284 285 284 284 284 283 283 282 284 283 281 282 284 283 279 277 283 284 282 283 279 279 277 277 277 279 280 280 280 279 279 279 278 278 278 279 279 280 280 280 280 281 281 282 283 284 284 284 284 285 285 284 284 285 285 285 285 285 284 284 284 284 285 285 285 285 285 285 285 286 286 286 286 285 285 286 286 285 285 285 285 285 284 284 284
282 283 283 282 281 282 283 283 284 285 284 283 283 282 283 282 281 283 282 282 281 282 277 278 279 279 278 277 280 280 279 278 278 278 277 277 277 278 279 279 280 280 280 281 281 282 283 283 284 284 284 284 284 283 283 284 284 285 285 284 284 284 283 284 285 285 284 284 284 284 285 285 285 285 285 285 285 285 285 285 285 285 285 284 284 284 284
279 282 283 283 282 281 279 281 282 282 282 281 281 281 281 281 279 281 281 280 279 278 276 277 281 280 279 279 277 278 278 279 279 278 277 277 277 278 279 279 280 280 280 281 281 282 282 283 283 283 283 284 283 283 283 283 283 284 285 284 284 283 283 284 284 284 284 283 283 283 284 284 284 285 285 285 285 285 285 285 285 285 284 284 284 284 284
275 279 279 279 279 277 276 276 277 277 278 276 278 278 280 279 277 279 278 274 275 275 276 278 279 279 277 277 277 277 278 280 280 279 277 277 277 277 278 279 280 280 280 280 280 281 282 283 283 283 283 283 282 282 283 282 283 283 284 284 283 283 283 284 284 283 283 282 282 282 283 283 283 284 284 284 284 284 284 284 284 284 284 283 284 284 284
273 279 279 276 275 275 272 274 277 279 279 280 280 281 281 280 280 277 274 275 272 273 277 274 276 279 278 278 278 278 278 280 279 278 277 277 277 278 278 279 280 280 280 280 280 281 281 282 282 283 283 282 282 282 282 282 282 282 282 282 282 282 283 283 284 283 282 281 281 281 282 282 282 282 282 282 283 283 283 284 284 283 283 283 283 283 283
273 277 276 275 271 266 268 280 281 280 278 278 275 275 277 277 279 276 275 273 273 272 274 274 275 276 276 277 279 280 279 278 280 280 279 279 279 278 279 279 280 280 280 280 280 281 281 282 283 283 282 282 282 281 281 281 280 281 281 281 281 281 282 283 283 283 282 281 281 281 281 281 281 281 281 281 282 282 283 283 283 283 283 283 283 283 283
271 275 271 270 265 267 278 276 276 276 275 276 276 276 274 270 272 273 273 272 272 275 275 276 277 278 279 280 280 280 280 281 281 280 280 279 279 278 279 279 279 280 280 280 280 280 281 281 281 281 281 281 281 280 280 279 279 280 280 279 279 280 281 282 282 282 281 280 280 280 280 281 281 280 281 281 281 282 282 282 282 282 282 282 283 283 283
268 268 269 263 265 273 272 276 275 275 274 275 274 273 276 272 272 274 274 276 275 278 278 279 280 279 280 280 280 280 281 281 281 280 279 279 280 279 280 279 280 280 279 279 279 280 281 281 280 280 279 280 279 278 278 278 278 278 278 277 277 278 279 280 280 280 279 278 278 279 280 280 280 280 281 281 280 281 281 281 282 282 282 282 282 282 283
267 267 267 267 269 270 272 271 271 274 272 272 271 268 271 275 274 275 275 277 279 279 279 280 279 280 279 277 278 280 280 281 282 281 280 280 279 279 280 280 280 281 280 279 279 279 279 279 279 279 279 279 278 277 276 276 276 276 276 275 276 277 278 278 278 277 277 276 277 279 280 280 280 280 280 280 281 281 280 280 280 281 281 281 282 282 282
273 264 264 264 263 262 265 270 271 276 274 274 275 271 268 276 276 277 277 276 277 277 278 278 278 278 274 271 273 277 279 280 281 280 279 279 279 279 279 279 279 279 279 279 278 279 278 278 278 278 278 277 276 275 275 275 275 274 274 274 275 276 276 276 276 275 275 275 276 279 280 279 279 279 280 280 280 280 279 279 279 280 280 280 281 281 281
271 266 266 265 264 266 271 269 272 273 274 275 276 272 267 276 275 275 276 276 277 277 277 277 277 272 266 268 273 275 277 279 278 277 278 278 278 278 278 278 278 278 278 278 278 278 277 276 277 277 276 274 274 274 274 274 274 273 273 274 274 274 275 275 274 274 274 274 276 279 279 279 278 278 279 279 279 279 278 278 278 279 279 279 279 280 281
270 269 267 265 269 264 271 272 273 274 276 278 274 264 265 270 273 273 274 274 275 276 276 274 271 270 265 269 273 277 276 278 278 277 278 277 277 277 278 278 277 277 277 277 276 276 276 276 276 275 274 274 273 273 273 273 272 272 273 273 274 274 274 273 273 272 273 273 275 277 277 277 277 277 278 278 278 279 279 278 278 278 278 278 278 279 280
271 272 268 271 270 273 270 272 272 273 275 271 262 263 265 273 273 273 273 273 274 273 272 272 268 273 275 276 277 277 276 275 276 277 277 277 277 277 277 277 278 277 276 276 275 275 275 275 275 274 273 272 272 272 272 271 271 272 273 273 273 272 272 271 271 271 271 272 273 275 276 275 276 276 277 277 277 277 277 278 277 276 276 277 277 277 279
268 269 267 268 267 270 271 271 273 274 270 261 263 268 271 272 272 272 273 273 274 273 273 273 274 276 277 278 278 277 277 277 277 277 277 277 277 277 277 277 277 276 275 275 274 274 275 274 273 272 271 271 271 271 270 270 271 272 272 272 271 270 270 269 269 269 269 270 272 273 273 273 273 274 275 276 276 276 277 276 276 276 276 276 276 276 277
262 264 264 264 261 268 271 273 269 270 264 265 269 270 270 272 271 271 271 273 274 274 273 274 275 276 276 276 277 277 277 277 277 277 277 276 276 276 276 276 276 275 273 274 273 273 274 273 273 272 270 269 269 270 269 270 271 271 271 270 269 269 268 268 268 268 268 269 270 271 271 271 271 271 272 274 275 276 275 275 275 275 275 275 275 275 275
261 261 261 261 268 272 273 272 266 268 273 274 273 272 273 275 273 272 272 273 274 274 274 274 274 275 275 276 276 277 277 277 277 276 276 275 275 275 275 275 274 273 272 272 272 272 272 272 271 271 269 268 268 268 269 271 270 270 269 268 268 267 267 266 266 267 267 268 269 269 268 268 269 269 270 272 274 275 275 275 275 275 275 275 274 274 274
265 263 265 270 271 271 273 273 273 273 276 275 274 274 274 274 274 273 272 274 275 275 275 275 275 275 276 276 277 276 276 276 275 275 275 275 275 274 274 274 273 271 271 270 270 270 271 270 270 270 269 267 267 267 269 269 268 268 267 266 266 265 265 265 265 266 266 266 266 266 266 267 267 268 270 271 272 274 274 274 274 274 274 275 274 274 274
272 273 274 275 272 273 274 275 276 276 276 277 275 274 273 274 275 274 274 274 275 275 275 274 274 275 276 276 276 276 275 274 275 275 274 274 274 273 272 272 271 270 269 268 268 268 269 269 269 269 268 267 266 267 268 268 267 266 265 264 264 264 264 264 264 264 264 264 264 265 265 266 267 268 269 270 271 273 274 274 274 274 274 274 274 274 273
270 266 275 272 274 275 275 276 277 276 275 276 275 273 274 275 275 274 274 275 275 275 274 274 275 275 276 275 275 274 273 273 273 273 273 272 272 271 270 271 269 268 268 267 267 267 266 268 267 267 266 266 267 267 266 266 266 264 263 263 262 262 262 262 262 263 262 262 263 263 264 265 266 267 269 270 271 272 273 273 274 274 274 274 274 274 273
269 270 274 274 274 275 275 275 275 276 277 276 275 275 275 275 275 274 274 273 273 273 272 274 273 274 274 273 272 272 272 272 272 271 271 270 270 270 270 269 267 266 266 266 265 265 265 266 266 266 265 265 265 265 264 264 263 262 261 261 261 261 261 261 261 261 261 262 262 262 263 264 264 266 267 269 270 272 273 273 273 273 274 274 274 274 274
272 274 275 275 275 275 275 276 276 276 276 276 276 276 273 272 271 271 271 272 272 272 272 271 270 269 270 270 269 269 270 270 270 270 269 269 268 268 267 267 266 265 265 264 264 264 264 265 264 264 264 264 263 263 263 262 261 260 260 260 260 259 260 260 260 261 261 261 261 262 262 263 264 266 267 268 270 272 274 275 274 274 274 275 275 275 275
269 269 272 274 267 269 274 275 275 274 274 274 274 272 271 270 270 269 269 269 269 269 269 269 269 267 269 269 268 267 268 268 268 268 267 267 266 266 266 265 265 264 263 263 262 262 262 263 262 262 261 261 261 261 261 260 260 259 259 258 258 258 258 258 259 259 260 260 261 262 262 263 264 265 269 272 272 272 273 277 278 279 279 276 276 277 276
269 274 275 276 275 275 276 276 276 272 270 271 271 271 270 267 267 266 266 267 267 267 267 268 266 266 267 267 266 265 266 266 266 266 265 264 264 264 264 263 263 262 262 261 261 260 260 260 260 260 259 259 259 259 259 259 259 258 258 257 257 258 258 258 259 259 259 260 260 260 261 261 262 263 264 266 272 274 275 275 277 278 280 280 281 281 278
276 277 277 276 273 273 276 276 271 267 268 269 269 267 267 266 265 265 264 265 265 265 265 264 265 265 265 265 264 263 264 264 264 264 264 264 263 263 263 262 261 260 259 259 258 258 258 258 258 258 258 258 258 258 258 258 258 258 258 257 257 257 258 258 259 259 259 259 259 260 260 261 261 261 262 263 266 272 275 276 277 278 279 280 281 281 282
275 278 277 277 276 276 273 268 266 266 265 267 267 266 265 265 265 265 263 263 263 263 264 264 264 265 263 263 262 262 262 262 262 262 263 262 262 261 260 259 258 258 258 258 258 257 257 257 257 257 257 257 258 258 258 258 258 257 257 257 257 257 258 258 258 259 259 259 259 259 259 260 260 262 262 263 264 267 270 274 276 277 278 279 280 281 282
278 278 278 275 269 271 269 269 267 264 264 264 264 263 265 265 264 263 263 262 263 262 262 262 262 262 262 261 261 261 260 260 261 261 260 259 259 258 257 257 257 257 257 257 257 256 256 256 256 256 256 257 257 258 258 258 258 257 257 257 257 257 257 258 258 258 258 259 259 259 260 260 260 262 263 264 264 265 265 267 270 274 276 278 279 280 281
276 272 271 271 273 273 269 271 271 264 263 265 263 263 263 263 263 262 262 261 261 260 260 260 260 260 258 258 259 259 258 259 259 258 258 257 257 257 257 257 257 256 256 256 256 256 257 257 257 256 256 257 258 258 258 258 258 257 257 257 257 258 259 259 259 259 259 259 259 260 260 260 261 261 261 262 263 263 263 263 264 266 270 273 276 278 278
267 265 269 272 274 274 267 263 263 263 263 262 262 261 261 260 258 257 256 259 259 258 259 258 258 257 257 257 256 256 257 256 256 256 256 256 256 256 256 256 256 256 255 255 255 256 256 256 256 256 257 257 258 258 258 258 257 257 257 257 257 258 258 258 258 258 259 259 259 259 259 259 259 260 261 261 261 262 262 263 265 267 270 272 274 276 278
264 262 262 262 262 261 262 262 262 262 261 262 261 260 258 257 256 257 257 259 258 257 257 256 256 255 256 256 255 255 255 255 254 254 255 255 256 255 255 255 255 255 255 255 256 256 256 256 256 256 256 257 257 257 257 257 257 256 257 257 257 257 258 258 258 259 259 259 259 260 261 260 261 261 261 262 263 263 264 266 267 269 271 272 273 273 276
261 261 259 260 260 260 261 261 262 261 260 260 259 257 257 256 256 257 257 257 256 256 256 256 255 254 255 254 254 254 253 253 254 254 254 254 255 255 255 255 255 256 256 256 256 256 255 255 255 255 255 256 257 257 256 256 256 256 256 257 257 257 257 258 258 258 258 258 259 261 261 261 262 262 261 261 262 263 265 267 268 270 271 271 273 272 272
259 257 257 259 259 259 260 261 260 259 259 258 257 257 256 256 255 256 256 256 255 255 255 254 253 253 253 253 253 253 253 253 253 253 253 254 254 255 255 255 255 255 255 255 255 254 254 254 254 255 256 256 256 257 257 256 256 257 257 257 257 258 259 260 261 259 259 260 260 260 260 260 260 260 261 261 261 262 262 263 266 269 271 271 271 271 272
255 255 256 258 257 257 258 259 258 258 257 257 255 255 255 254 253 253 254 253 253 253 253 252 252 252 253 252 253 253 252 252 252 252 253 253 254 255 256 257 257 256 255 255 254 254 254 254 254 255 257 257 257 257 257 257 257 257 256 257 257 257 258 259 259 259 259 259 259 259 260 260 260 261 261 262 263 263 264 265 266 268 270 271 271 271 273
255 257 257 257 256 258 259 258 257 256 256 255 255 255 254 253 253 253 253 254 253 253 252 252 252 252 252 252 251 251 251 251 252 252 252 253 255 256 257 257 257 256 255 255 255 255 255 254 255 256 257 257 257 257 257 257 257 257 257 257 257 257 258 259 259 259 259 259 259 259 259 260 260 261 261 262 263 264 266 267 268 269 270 270 271 272 273
256 257 256 256 257 259 258 257 256 255 255 255 254 254 253 253 252 253 252 252 252 251 251 252 252 252 251 251 250 250 250 250 250 251 253 254 256 257 257 257 256 255 255 255 255 256 256 257 256 256 256 257 257 257 257 258 258 257 257 257 257 257 257 258 258 258 258 258 259 260 260 260 260 261 262 262 263 265 267 268 268 269 269 270 271 271 273
256 256 256 256 256 256 255 255 253 253 252 252 252 252 252 252 252 251 252 252 251 252 252 252 252 251 251 250 250 250 250 250 251 252 254 255 256 256 256 255 255 254 254 255 256 257 257 257 256 256 257 257 257 258 258 258 258 257 257 257 258 258 258 258 258 258 258 259 259 259 259 260 260 262 263 263 263 265 266 268 269 269 269 269 270 271 272
254 254 255 255 255 254 253 252 252 251 251 251 251 251 251 251 250 250 250 251 252 252 252 252 251 250 250 249 249 250 250 251 252 254 255 256 256 256 255 254 253 253 254 255 257 257 256 256 257 257 257 257 257 257 257 257 258 258 258 258 258 258 259 259 259 259 260 260 260 260 260 261 262 262 263 264 265 265 266 267 268 269 269 269 270 270 271
254 253 253 253 253 252 250 250 250 250 250 250 250 250 250 250 250 250 251 251 251 251 251 250 250 250 249 250 250 251 251 252 253 255 255 256 256 255 254 253 253 253 254 254 255 256 256 256 257 257 257 256 256 256 257 258 258 258 259 258 258 258 258 258 259 259 260 260 261 261 262 262 262 263 264 265 265 266 266 267 268 268 269 269 269 270 270
252 253 251 251 251 251 251 251 251 250 250 248 249 249 250 250 250 250 250 250 250 250 251 250 250 250 251 251 251 251 252 253 254 255 255 255 255 254 253 253 253 254 253 254 255 256 256 256 257 256 256 256 256 256 257 258 259 259 258 258 258 258 258 258 259 260 260 261 262 262 262 263 263 264 265 265 266 266 267 267 268 268 268 267 267 267 267
252 252 251 251 251 251 251 251 250 249 249 248 248 248 249 249 250 249 249 250 250 251 250 250 250 250 250 249 250 251 252 254 255 254 254 254 254 253 253 253 254 254 254 256 256 255 256 256 256 255 255 255 256 256 257 258 259 258 258 257 257 258 258 259 259 259 260 261 261 262 263 263 264 264 265 265 266 265 265 265 265 264 264 263 263 263 262
251 251 251 251 250 251 250 250 249 249 248 248 247 248 249 249 249 249 250 249 250 251 250 250 249 249 249 250 251 252 254 255 255 254 254 254 254 253 254 254 254 255 256 256 256 255 256 256 255 255 255 255 256 256 257 258 258 258 257 257 257 258 258 258 259 259 259 260 260 261 261 261 261 262 262 262 262 262 263 262 262 262 261 261 261 261 260
251 252 251 251 251 250 250 249 249 249 248 248 247 248 249 248 249 248 248 248 249 249 249 249 249 249 250 250 252 253 255 255 255 254 254 253 252 253 252 253 255 255 255 255 255 256 256 255 255 254 255 255 256 257 257 257 257 257 257 257 257 257 258 258 258 258 258 259 259 259 259 260 260 260 260 260 260 260 261 260 260 260 260 259 259 259 259
250 251 250 250 250 249 249 249 249 248 248 247 248 248 248 249 248 248 248 248 248 249 248 249 251 251 251 253 254 255 255 255 254 254 254 253 252 252 252 253 255 254 256 256 255 255 254 254 254 255 255 255 256 256 257 257 256 256 256 257 257 257 257 257 258 258 258 259 259 259 259 259 259 259 259 259 259 259 259 259 259 259 259 258 258 258 258
249 248 248 248 248 248 248 248 249 249 248 248 248 248 248 248 247 248 248 248 248 248 249 249 250 252 253 254 254 254 254 254 254 253 253 253 253 253 252 253 254 254 256 255 255 254 253 253 254 254 256 256 255 256 256 255 255 255 255 256 256 257 257 257 257 257 258 258 258 258 258 258 258 258 258 258 258 258 258 258 258 258 258 258 258 258 258
248 248 248 248 248 249 249 248 248 248 247 248 250 248 248 248 248 248 248 248 248 249 249 250 251 252 254 255 255 254 254 254 253 253 252 253 254 254 254 254 254 255 255 255 254 254 253 253 254 255 256 255 255 255 255 254 254 254 254 255 255 256 256 256 256 256 256 257 257 257 257 257 257 257 257 257 257 257 257 257 257 258 258 258 257 257 257
247 248 247 247 247 247 248 247 247 247 248 249 249 248 248 247 248 248 248 248 249 250 251 253 254 255 255 255 254 254 254 254 254 253 251 252 252 254 256 255 254 254 254 255 254 253 253 253 255 255 255 255 255 254 253 253 253 253 254 253 254 254 255 255 255 255 256 256 256 256 257 256 256 256 256 257 257 257 257 257 257 257 257 256 256 256 256
247 247 246 247 246 246 247 247 247 248 248 248 247 248 248 248 247 248 249 249 249 251 253 255 256 256 256 255 255 255 254 254 254 254 253 252 251 252 254 254 254 254 255 255 253 253 253 255 255 255 255 254 254 253 252 252 252 252 252 252 253 253 253 254 254 254 255 255 255 255 255 256 256 256 256 256 256 256 256 256 256 256 256 255 255 255 255
246 245 245 244 245 245 246 246 247 247 246 246 245 246 249 249 249 249 249 251 251 253 254 256 256 256 257 256 254 253 252 252 253 253 251 251 253 254 254 254 254 254 254 253 252 252 253 254 254 254 254 254 253 252 251 251 251 251 251 252 252 252 253 253 253 253 253 254 255 255 255 255 255 255 255 255 255 255 255 255 255 255 255 255 255 255 255
245 244 244 244 244 245 245 244 241 242 242 245 246 248 249 250 250 251 252 253 254 255 255 255 255 255 255 255 255 254 254 252 251 251 250 252 254 254 253 253 253 254 254 253 253 253 254 254 254 254 254 253 252 252 251 251 251 251 251 251 251 251 252 252 252 252 253 253 253 253 253 253 254 254 254 254 254 254 255 254 254 255 255 255 255 255 255
243 243 244 244 244 243 243 244 245 247 247 248 247 249 250 251 252 253 254 254 254 255 255 255 255 254 255 255 255 255 255 254 252 251 253 254 254 253 253 254 254 254 253 251 251 251 253 253 253 253 253 252 251 251 251 251 251 251 251 251 251 251 251 251 252 252 252 252 252 253 253 253 253 253 253 253 253 253 254 253 253 254 254 254 254 254 254
244 243 244 245 245 246 246 246 247 247 248 249 249 251 253 253 253 253 254 254 254 254 254 254 255 255 254 254 255 254 254 254 254 255 255 254 253 254 253 252 252 253 253 251 250 251 252 252 252 252 252 251 251 251 251 251 250 251 251 251 250 250 251 251 252 252 251 251 251 252 252 252 252 252 253 253 253 253 253 253 253 253 253 253 253 252 252
244 244 245 246 246 248 245 246 248 249 250 251 252 254 254 254 253 254 254 254 254 253 253 254 254 255 254 254 254 254 253 253 254 255 255 254 254 253 253 253 252 252 252 252 251 250 251 250 251 251 251 251 251 251 251 251 251 251 251 251 250 250 250 250 250 249 249 250 250 250 250 250 251 251 251 251 251 251 251 251 251 251 250 250 250 250 251
245 245 247 248 248 246 247 249 250 251 253 253 254 254 254 254 253 253 254 255 254 253 253 253 252 254 254 254 254 253 253 254 253 254 254 254 253 252 252 252 251 251 250 250 250 249 250 250 251 251 251 251 250 250 251 251 251 251 251 251 251 250 250 250 250 249 249 249 249 249 249 249 249 248 249 249 249 250 250 250 250 250 250 250 250 251 251
Wind_Speed
10 13 14 12 11 9 10 12 13 15 13 9 13 16 14 8 11 15 12 13 15 12 4 2 3 3 3 1 4 3 3 2 4 5 6 7 8 8 8 7 8 8 10 9 10 10 11 12 13 14 13 14 13 12 9 9 10 11 11 11 12 12 12 12 12 12 12 12 12 14 14 14 14 13 12 10 9 8 8 10 9 11 12 12 13 13 13
9 10 10 6 9 8 9 10 10 10 11 15 15 14 11 12 14 12 13 14 19 8 4 3 3 2 1 2 2 3 3 4 2 4 6 6 6 6 6 6 6 6 7 8 8 9 9 10 12 12 12 13 13 14 14 13 13 11 10 10 11 12 12 11 11 11 12 12 12 13 13 14 14 14 12 11 11 9 9 10 10 10 10 11 13 15 14
6 6 7 5 7 8 11 8 8 10 11 13 11 12 15 15 13 15 19 18 16 3 2 3 3 4 1 3 4 3 4 3 2 4 5 5 7 7 6 6 7 6 6 7 8 9 10 10 10 10 10 10 11 12 12 13 13 13 11 12 11 11 12 11 11 10 10 12 13 14 13 12 11 12 13 11 9 8 8 8 10 9 10 12 13 12 13
13 10 11 10 5 5 8 10 12 16 17 16 13 14 10 11 16 17 12 8 7 3 4 3 3 3 2 3 4 4 3 2 2 5 6 6 8 8 7 7 7 7 8 8 8 9 10 10 10 10 10 10 9 11 11 12 13 12 11 11 11 12 12 12 11 11 11 11 12 13 13 13 13 12 11 11 10 9 8 8 8 8 11 12 12 12 12
11 12 7 2 1 8 12 14 18 20 20 18 17 16 14 16 10 12 13 10 2 5 4 2 3 6 5 3 5 5 4 3 3 5 6 5 7 6 7 8 8 7 7 7 8 9 8 9 9 10 10 9 9 8 10 11 12 13 12 12 12 13 12 11 11 11 12 12 12 12 12 13 12 12 12 12 12 11 10 9 7 8 11 11 12 12 13
3 5 4 2 5 14 14 5 2 6 14 12 13 13 12 6 4 3 1 4 3 2 2 3 3 3 3 3 5 5 5 5 5 7 6 7 7 7 7 7 8 8 7 6 7 7 9 9 9 9 10 9 8 7 8 9 11 11 12 12 12 13 13 11 11 11 12 12 13 13 12 12 12 13 13 13 12 10 10 9 8 9 9 11 11 12 13
6 4 4 10 17 17 4 2 3 3 3 3 7 6 1 2 4 5 5 5 4 7 6 8 7 7 6 4 6 9 6 5 7 8 7 7 7 7 8 8 8 7 8 8 7 8 8 8 8 9 9 8 8 8 8 9 10 10 11 11 11 11 12 12 11 10 11 12 13 13 12 12 12 12 13 12 12 10 9 10 9 10 10 10 11 11 12
2 2 6 9 11 2 5 3 4 3 3 1 5 3 5 3 6 7 7 6 6 6 7 6 7 5 6 3 6 10 10 8 9 8 8 7 6 7 7 8 8 8 7 8 8 9 8 8 9 8 9 7 7 9 9 10 11 10 10 11 11 10 10 10 11 12 12 14 14 14 13 12 12 13 13 12 13 11 9 9 8 9 9 8 10 11 11
13 8 11 16 6 11 9 7 2 6 4 4 4 8 4 10 5 5 4 2 4 4 6 7 6 3 1 4 8 10 10 10 10 11 9 6 6 7 8 7 9 8 6 6 8 8 8 9 9 9 8 6 7 9 10 10 9 11 10 10 11 11 10 11 11 12 13 14 16 15 13 14 14 13 13 14 13 9 10 10 9 9 10 10 9 10 11
8 5 7 7 5 9 4 3 3 1 2 1 1 5 5 8 6 3 4 3 5 5 5 5 4 3 1 6 8 7 7 8 11 9 7 6 6 7 8 6 7 6 6 6 6 7 9 11 10 8 7 6 6 10 10 11 11 12 12 12 11 10 12 12 12 13 13 14 15 15 13 14 15 14 13 11 11 9 9 11 10 10 9 9 9 9 11
4 2 7 9 8 6 3 4 3 3 1 1 2 4 6 3 9 4 6 5 6 6 5 6 4 2 3 8 8 9 6 8 7 8 8 7 7 7 7 7 8 8 8 7 9 9 9 11 11 7 6 6 7 9 10 11 10 12 12 12 12 11 12 13 13 13 13 15 15 14 14 14 13 15 15 13 12 10 10 9 10 10 8 9 9 9 10
7 8 8 10 3 2 2 4 2 3 2 1 1 6 5 3 11 7 6 8 7 6 7 4 4 7 6 8 10 7 8 11 10 7 8 7 7 7 7 6 6 6 7 8 11 11 12 13 10 9 7 8 8 11 11 10 11 13 12 12 11 12 12 12 11 13 13 15 16 15 14 15 14 14 13 13 13 12 11 9 10 9 8 9 11 11 9
12 16 11 7 5 1 4 6 5 2 2 2 1 13 2 8 10 7 6 7 8 6 6 5 6 10 11 10 11 8 4 3 7 8 7 8 7 8 8 8 6 6 7 8 11 13 12 12 10 8 6 8 11 11 11 11 14 12 11 11 11 11 12 12 13 14 14 14 18 16 13 13 14 14 12 12 14 13 13 11 9 9 10 10 10 11 9
11 8 11 10 3 4 6 4 5 3 4 3 9 3 5 8 9 6 7 8 8 7 8 7 9 11 12 11 9 9 11 11 10 8 7 7 8 7 6 7 7 6 7 9 11 13 13 11 9 7 6 9 12 13 12 15 15 10 11 11 10 10 13 13 14 14 15 16 16 14 14 13 15 16 15 13 13 13 11 11 13 13 11 9 9 10 9
1 0 6 5 8 2 7 7 3 1 5 7 3 2 3 6 5 5 6 8 10 7 8 10 11 11 10 10 11 11 11 11 12 12 8 7 8 10 11 11 9 5 7 11 13 13 13 12 10 8 7 11 14 13 15 18 11 10 10 10 12 13 14 15 15 15 16 16 16 13 14 14 15 18 17 15 15 12 12 13 13 14 12 10 9 10 9
5 4 6 5 6 4 8 7 5 4 9 4 4 1 7 5 3 4 4 7 9 8 8 8 8 9 10 10 10 11 11 11 12 10 8 6 5 7 8 9 10 6 8 10 12 13 13 11 10 9 8 11 14 15 20 15 10 11 9 11 11 13 15 16 16 16 15 15 14 14 15 15 16 17 18 16 14 13 11 11 11 12 11 9 8 9 10
6 6 6 5 4 3 3 3 4 4 6 5 5 4 5 5 7 3 4 7 7 7 8 8 8 9 9 11 11 10 11 10 9 10 8 8 8 8 10 12 10 6 9 12 12 14 14 14 13 10 7 10 14 18 18 11 12 12 12 13 13 15 16 16 17 16 15 15 15 15 15 14 15 17 17 15 14 13 11 11 11 11 12 9 10 10 10
4 7 12 5 1 6 7 7 8 9 10 9 5 5 5 7 8 5 6 5 6 6 5 6 7 9 10 10 10 9 7 8 9 8 8 9 9 9 9 10 9 7 8 8 11 14 17 17 15 11 10 8 14 18 14 12 12 12 13 15 16 18 17 16 16 16 18 18 17 15 16 14 14 14 17 15 15 14 12 11 11 11 13 10 10 11 10
8 14 10 1 10 11 10 12 11 7 6 8 4 4 7 8 7 5 5 7 7 7 4 7 9 10 9 9 8 6 6 8 10 10 10 10 10 11 11 11 7 9 9 12 14 15 17 18 14 10 11 10 12 12 13 12 12 13 14 15 17 18 18 17 17 15 17 15 15 15 15 13 14 14 14 14 13 14 13 12 12 11 12 11 11 11 12
11 16 15 10 7 8 7 7 8 11 11 7 6 7 6 6 6 5 5 3 5 3 4 5 6 9 7 4 6 6 8 10 10 10 10 10 11 12 10 9 7 9 11 12 14 16 17 18 15 14 13 12 11 11 11 11 12 14 16 17 17 18 20 17 15 15 15 18 19 15 15 13 14 15 13 14 15 14 13 12 11 12 11 12 12 12 11
12 14 16 13 9 11 13 13 10 10 10 11 11 7 3 3 4 3 2 1 2 0 2 1 1 5 8 3 3 6 10 11 11 10 10 11 12 12 12 11 10 11 11 14 15 16 16 15 13 16 15 15 9 11 10 10 13 16 18 19 18 19 18 16 15 13 14 14 14 14 15 15 14 14 14 14 15 15 15 11 12 12 12 13 13 12 11
13 13 13 5 5 10 11 8 8 6 6 6 7 4 1 1 1 2 4 2 1 1 0 0 1 4 8 6 3 7 9 10 11 11 12 12 13 14 12 10 12 13 13 12 14 15 17 15 16 15 17 14 13 11 11 10 12 17 19 19 19 19 15 14 14 13 12 12 12 14 14 14 14 17 20 26 21 17 15 18 25 27 23 17 15 10 11
15 15 11 8 9 11 13 13 9 0 0 1 3 2 1 1 2 1 1 5 4 1 0 0 2 5 7 8 4 8 9 11 10 9 11 12 14 15 14 14 16 14 15 14 15 17 18 14 17 18 18 18 15 14 11 14 14 16 18 17 17 17 15 13 14 15 13 13 13 13 14 14 14 16 17 17 24 31 31 31 29 29 29 31 32 29 18
16 17 16 9 5 10 12 9 0 3 0 3 2 3 2 2 1 1 1 1 3 6 3 3 4 5 5 4 3 8 12 12 9 11 11 11 10 11 12 11 13 17 18 18 16 17 17 17 18 18 19 18 15 14 13 12 14 15 16 16 17 17 15 14 15 16 14 15 15 15 14 13 14 15 16 17 17 20 25 26 27 28 29 30 31 29 30
16 17 11 9 8 10 3 1 5 3 2 1 4 3 3 2 1 1 1 2 3 5 7 6 0 1 5 6 4 7 10 13 10 10 13 14 13 11 11 12 14 12 14 14 16 15 16 17 19 18 18 17 15 15 14 14 14 16 16 16 18 17 17 16 16 17 16 16 16 15 14 14 14 14 15 16 17 16 12 17 22 23 24 26 28 29 29
16 15 15 6 2 4 3 2 1 3 1 2 1 1 1 0 1 1 3 3 4 3 4 6 6 3 3 7 8 6 9 12 11 11 12 13 12 11 10 11 13 13 13 15 15 16 16 18 18 18 18 16 15 15 15 14 14 15 16 16 16 16 16 16 16 15 14 14 15 14 14 15 15 15 13 11 13 14 16 14 12 16 22 26 26 26 26
10 5 3 7 11 10 5 8 6 4 1 1 2 1 1 1 2 2 2 2 3 3 3 5 4 4 3 4 6 5 7 14 15 12 10 12 14 12 11 11 14 15 16 15 16 16 19 19 19 16 17 15 15 14 16 15 16 15 17 15 15 16 25 24 16 15 14 15 15 15 16 16 14 13 14 14 14 15 14 16 18 17 12 11 16 22 19
0 1 3 11 14 10 3 1 2 1 1 1 1 1 2 1 1 2 3 3 1 1 2 2 4 5 6 4 5 11 8 8 11 14 14 14 13 12 13 14 14 15 14 15 14 16 15 14 14 18 19 16 15 15 14 15 16 16 15 15 14 11 12 16 16 15 14 11 12 12 14 14 16 17 17 15 15 14 15 18 19 17 15 12 9 12 22
1 3 4 3 2 2 2 2 2 1 0 2 2 2 4 4 4 3 3 4 4 4 3 3 3 4 6 7 5 9 10 10 11 13 14 15 15 14 14 15 14 13 14 13 12 12 14 16 17 20 18 16 14 16 15 15 16 13 14 13 13 12 13 12 12 10 11 10 12 13 16 17 16 15 15 15 16 14 14 14 15 14 13 10 8 8 12
1 2 2 1 2 3 3 2 1 1 3 3 5 3 3 3 6 4 5 5 4 6 4 4 5 5 5 8 7 7 11 13 13 13 14 14 15 14 15 15 15 12 10 11 14 15 16 16 16 17 17 13 15 15 15 13 13 14 15 15 13 13 12 12 12 12 12 12 13 19 16 13 12 11 12 12 13 15 16 15 15 14 11 9 10 9 8
0 2 1 2 2 1 1 1 1 1 1 2 4 4 5 3 3 7 5 6 5 5 5 6 8 9 7 7 8 8 9 11 12 13 13 14 14 15 14 12 12 14 15 16 16 16 15 15 14 15 13 14 13 15 14 14 12 13 13 13 12 19 24 26 21 15 12 13 14 13 13 14 13 14 15 13 13 13 14 15 16 13 11 9 9 9 9
2 3 3 1 0 0 0 1 1 1 2 2 3 4 4 5 6 9 9 8 6 6 9 8 8 9 9 8 9 10 10 11 12 13 13 14 14 13 12 11 12 14 14 15 15 14 14 13 14 14 14 12 13 13 14 13 13 12 13 14 14 13 15 23 16 16 15 14 13 13 13 13 13 13 14 15 14 13 12 12 13 13 10 10 9 8 7
2 1 3 2 1 1 1 0 1 3 2 3 3 2 3 3 4 5 6 6 8 7 7 9 9 9 9 10 9 10 11 12 12 13 13 13 12 12 11 11 12 13 14 13 15 14 14 13 14 13 14 14 14 14 14 14 12 11 11 12 12 13 13 15 17 14 14 14 13 12 11 12 13 13 13 14 14 14 12 13 12 11 10 9 8 7 6
3 3 2 3 3 3 4 5 2 5 4 4 3 3 3 4 4 6 6 6 7 8 8 9 9 9 9 10 10 10 11 12 12 11 13 14 13 13 13 13 13 14 13 14 13 12 10 11 13 14 15 15 14 13 13 14 11 11 11 11 12 12 11 12 13 12 12 13 12 14 12 12 12 12 13 13 13 13 13 12 11 11 9 8 7 6 8
2 1 1 1 0 1 2 4 5 5 5 7 6 5 4 5 6 6 7 7 8 8 7 8 9 9 9 10 10 10 10 11 13 14 14 14 14 14 14 15 15 14 13 11 11 10 11 15 15 16 15 15 14 14 12 15 12 12 11 12 12 11 11 11 11 10 10 11 11 10 10 11 12 13 14 13 12 12 12 11 10 9 8 7 6 5 6
1 1 1 2 2 3 3 3 3 4 5 6 7 8 8 7 7 7 8 8 6 7 8 9 9 8 9 9 10 9 11 12 13 14 13 13 14 13 14 15 15 15 15 13 9 10 14 14 18 24 18 14 14 14 14 14 13 12 11 12 11 11 11 11 11 11 11 11 10 11 10 13 14 13 12 11 10 11 12 11 9 7 6 6 5 5 5
1 1 1 2 3 3 4 4 4 4 5 6 7 7 9 7 7 7 6 7 7 7 7 7 8 9 10 9 10 10 11 12 11 11 11 12 13 14 14 14 14 13 13 14 14 15 15 14 21 28 18 13 13 14 16 23 15 13 12 11 10 10 10 10 10 10 10 10 10 11 12 11 10 10 11 10 11 10 10 9 7 6 5 4 4 4 4
2 2 3 3 4 4 5 5 4 4 7 9 8 8 9 9 7 7 7 6 6 7 6 6 8 9 10 10 9 11 13 12 12 11 13 15 14 15 15 11 11 10 11 12 16 15 13 17 24 19 13 12 13 14 17 25 24 15 10 10 10 10 11 10 10 11 11 11 10 9 9 8 9 8 8 8 8 8 7 6 5 4 2 1 1 0 1
2 1 3 3 3 4 6 6 4 5 5 10 11 10 8 8 7 6 7 7 7 6 6 7 8 9 9 10 11 11 13 14 12 13 14 18 15 12 12 11 10 8 9 12 14 12 13 16 17 14 13 13 15 15 17 21 23 13 10 9 10 9 10 10 10 10 10 11 9 8 7 7 6 6 5 4 2 1 1 2 3 3 3 3 3 4 4
3 3 4 4 4 4 4 5 5 6 6 6 7 9 8 7 8 7 8 8 9 6 7 7 8 9 9 10 11 12 12 12 11 12 15 14 13 12 11 8 4 5 9 13 12 10 16 23 17 12 12 13 14 12 13 19 19 11 10 10 9 9 9 9 9 8 8 8 9 9 7 7 6 5 5 5 5 4 3 4 4 4 4 4 5 5 5
5 5 4 3 5 3 5 5 6 5 5 5 6 7 6 7 8 7 8 9 9 7 8 6 8 9 10 11 13 14 13 11 10 12 11 10 10 8 8 10 9 10 10 12 12 12 15 14 13 12 12 13 12 15 14 17 13 9 10 9 9 9 9 9 8 8 8 8 8 7 7 7 7 7 6 6 6 6 5 5 5 5 5 6 6 6 6
4 4 5 5 5 5 5 6 6 6 5 5 6 6 7 7 7 9 9 8 8 8 8 9 10 11 12 12 11 11 12 13 11 9 8 7 8 7 8 9 10 10 16 17 13 12 10 11 11 10 12 14 13 21 23 13 10 9 9 9 9 9 9 9 9 9 8 7 7 7 8 7 7 7 7 6 6 6 6 6 6 6 6 6 6 6 6
4 4 5 5 5 5 5 5 6 7 7 7 6 6 7 7 7 7 7 8 8 8 9 8 10 12 12 10 9 10 9 8 9 8 7 6 9 8 6 8 10 10 18 13 12 9 10 9 10 9 18 18 15 23 19 10 9 9 9 9 9 9 8 9 9 9 9 8 8 8 8 7 7 7 7 7 7 7 7 7 7 6 6 6 6 6 6
4 5 4 5 6 6 6 6 6 7 7 8 5 5 7 7 7 8 8 8 8 8 8 9 9 9 8 7 6 6 6 7 7 7 8 8 6 3 3 7 8 12 17 12 10 9 9 10 9 17 23 23 23 21 12 9 9 9 9 9 9 9 8 8 8 8 8 9 9 9 8 9 8 7 7 7 7 7 7 6 6 6 6 7 6 6 6
5 5 5 6 5 6 7 5 7 8 8 8 8 8 8 8 9 8 7 7 8 9 8 9 8 7 5 4 4 5 5 6 6 7 5 6 12 8 7 10 11 9 11 16 10 9 9 10 16 23 20 22 20 18 9 9 9 9 9 9 9 9 8 9 9 8 8 8 8 8 8 8 7 8 7 7 7 7 6 6 7 7 7 6 6 6 7
5 4 5 6 7 7 7 7 7 6 7 8 8 9 9 7 7 8 7 8 8 8 8 8 7 7 6 4 4 5 5 6 6 5 5 4 3 7 9 10 8 8 16 16 8 9 9 17 22 21 22 21 19 10 8 9 8 8 9 9 9 9 9 8 9 8 9 8 8 8 8 7 7 8 8 7 7 7 8 9 8 7 7 7 7 7 8
5 6 6 6 7 7 7 7 6 6 7 6 6 7 7 6 6 6 7 8 8 8 7 6 6 6 5 4 3 4 5 6 6 5 4 4 5 6 7 10 9 13 12 8 8 7 9 12 16 21 22 21 16 9 8 8 8 8 9 8 9 8 9 8 9 8 8 8 9 9 8 8 7 7 8 7 8 8 7 8 7 7 7 8 8 8 8
6 7 8 7 8 9 7 6 5 5 5 7 7 7 7 7 7 7 7 7 6 5 5 4 4 3 3 3 3 3 3 3 6 4 3 2 4 5 5 6 8 13 13 9 10 9 15 19 19 20 20 18 10 9 9 9 9 9 8 9 9 9 9 8 9 8 8 8 8 8 8 8 7 7 8 8 7 7 7 7 7 6 7 7 8 8 10
5 6 9 8 7 8 5 5 4 6 6 6 5 6 6 7 6 6 5 5 5 4 4 3 3 2 2 2 2 3 3 3 4 5 4 4 5 5 5 6 9 10 9 7 8 7 12 17 16 17 17 12 9 9 9 9 9 9 9 9 8 8 8 8 7 7 8 8 8 8 8 8 8 7 7 7 8 8 8 7 7 6 7 7 9 8 7
6 4 5 6 5 6 5 5 5 6 6 6 6 5 6 5 5 4 3 3 4 5 3 3 3 2 2 3 3 3 3 3 4 4 4 4 4 4 5 5 5 8 8 6 6 8 9 13 12 12 11 8 8 8 8 9 9 9 8 9 9 8 9 9 8 9 7 7 8 8 8 7 7 8 8 7 7 7 8 7 7 8 10 8 8 8 7
5 5 5 6 5 5 5 5 5 6 5 5 5 5 5 4 5 5 3 4 3 4 4 4 3 1 2 3 3 3 3 3 3 3 3 3 3 4 5 4 5 5 7 6 5 7 7 7 7 9 9 8 8 8 8 8 8 8 8 8 9 8 9 9 8 9 9 8 7 7 7 7 7 7 7 7 7 7 8 8 8 7 7 7 6 7 8
5 6 6 4 5 5 5 5 5 4 5 5 5 5 4 4 4 4 3 5 3 3 4 4 3 2 1 3 3 3 3 2 3 2 3 4 4 3 5 6 5 6 6 5 5 5 5 6 7 8 8 7 7 7 7 8 8 8 8 8 7 8 8 8 8 8 8 8 8 8 8 7 7 8 8 7 7 7 7 7 6 6 6 6 5 5 5
Wind_Direction
265 270 273 275 276 262 268 265 271 272 272 249 241 251 254 255 248 269 278 287 282 285 230 140 90 101 7 54 329 274 283 276 338 337 348 354 354 345 355 343 347 345 344 342 341 341 339 341 344 344 344 345 345 346 348 346 347 346 343 342 341 341 338 339 336 337 334 334 332 331 329 328 325 318 308 291 275 259 240 236 231 228 224 219 220 220 221
266 271 271 271 264 273 266 262 258 261 260 261 258 264 264 251 257 270 281 274 269 287 183 142 162 157 134 267 289 281 290 287 297 325 322 340 332 332 331 331 326 330 326 334 328 332 334 338 340 340 341 342 342 341 340 342 342 341 343 339 338 336 335 329 328 330 332 330 331 330 330 330 326 320 312 303 294 281 262 248 241 233 230 226 223 223 221
256 247 258 263 269 274 277 278 281 272 269 268 269 274 267 272 269 259 257 262 270 128 171 183 154 182 243 227 286 259 265 252 260 284 293 311 326 324 324 324 327 318 322 321 329 327 332 333 332 336 333 333 334 334 336 337 337 337 338 334 334 332 328 326 323 325 329 331 331 331 328 324 323 321 315 309 296 281 273 260 251 242 230 230 228 226 224
272 266 268 272 294 297 280 278 272 264 261 267 262 258 262 266 267 267 271 262 248 148 136 272 162 196 240 228 255 283 272 261 245 272 295 319 326 321 316 316 313 320 316 326 325 326 323 325 326 329 329 328 332 333 334 333 331 329 329 328 328 324 321 319 320 325 328 329 330 327 328 327 324 319 312 305 298 290 281 271 257 246 239 236 234 229 226
256 261 273 301 40 299 276 253 252 258 262 257 261 261 261 253 273 271 262 273 85 176 174 100 248 181 255 247 272 276 300 228 233 268 272 296 298 296 302 304 308 306 314 312 319 316 319 316 320 319 323 321 322 327 329 326 326 325 325 327 325 323 322 322 322 326 327 328 325 324 323 322 319 318 318 315 313 311 299 284 274 257 249 243 239 234 229
306 291 325 17 292 254 248 257 211 218 246 253 257 258 254 265 147 241 246 156 180 153 187 189 239 231 238 233 262 249 258 272 246 253 263 284 289 292 289 287 290 293 296 301 302 308 306 306 306 312 315 313 311 318 319 318 320 318 321 323 324 322 321 321 323 324 325 325 322 320 319 319 319 317 317 316 311 306 300 295 280 267 256 249 245 239 233
263 277 0 294 247 261 330 43 306 336 280 249 245 271 200 152 108 120 110 131 147 199 188 204 217 224 236 262 270 284 265 222 238 237 252 270 280 280 282 286 285 285 288 291 298 297 300 296 299 306 307 307 313 315 316 315 312 313 315 314 314 316 315 317 320 323 323 321 318 316 315 315 315 314 313 311 309 304 302 295 287 273 262 256 248 243 242
333 152 234 248 266 81 300 322 333 316 63 70 79 279 186 192 170 152 160 187 188 189 206 219 226 209 246 267 269 265 268 232 226 229 245 268 272 281 280 279 279 277 275 281 289 292 290 296 296 298 297 305 315 312 316 313 314 315 314 313 311 311 311 315 320 323 324 320 317 314 313 315 315 315 313 310 308 306 299 289 277 273 270 259 254 247 241
256 247 244 252 331 309 270 285 226 170 186 191 174 239 245 189 191 147 162 220 209 218 227 229 226 212 25 289 271 257 241 236 215 218 235 244 263 266 275 275 278 273 266 275 280 284 289 289 292 295 299 308 313 312 314 312 313 309 310 308 309 312 312 317 320 322 323 320 315 313 314 316 315 314 313 310 305 302 295 287 280 270 265 256 253 250 245
209 254 271 296 284 258 277 232 278 258 177 148 259 99 300 159 203 149 161 195 230 226 239 243 223 105 40 294 271 256 236 220 217 230 233 246 250 259 267 277 277 281 282 281 281 283 290 291 288 292 298 308 314 309 307 309 312 309 309 306 310 312 313 319 319 320 319 316 310 308 311 312 312 309 306 299 294 294 286 286 281 272 266 265 256 250 246
275 253 235 247 256 266 143 210 193 254 181 104 218 76 274 173 179 214 181 234 234 220 220 241 127 125 228 254 261 258 226 236 229 230 246 241 251 262 265 270 285 295 298 294 295 294 289 287 292 300 301 306 306 299 299 304 303 300 300 305 310 314 314 317 318 316 316 313 307 304 306 308 309 307 306 303 298 292 280 272 270 274 270 266 264 252 247
220 248 253 250 236 241 221 178 198 230 90 137 53 320 304 124 204 203 194 219 234 229 226 206 161 176 219 253 261 247 219 215 224 232 253 262 264 269 275 276 269 280 293 306 300 297 293 289 297 306 313 310 302 297 298 296 294 290 296 301 306 309 310 311 312 312 310 308 304 303 304 305 305 300 299 300 296 294 286 275 276 271 266 263 263 261 250
233 237 256 254 279 245 172 195 207 178 176 91 238 255 230 195 207 219 194 217 225 215 215 183 179 225 215 232 251 264 262 226 254 252 247 254 258 268 277 278 286 293 294 292 288 288 289 292 301 307 315 311 301 300 300 297 285 291 296 301 306 307 309 308 308 307 306 304 302 299 299 301 301 298 295 294 295 294 291 286 273 268 260 259 258 261 255
240 238 243 254 269 239 183 245 145 191 85 245 227 234 164 174 209 228 201 217 230 208 209 205 211 235 236 244 261 276 275 266 266 263 258 272 281 267 257 271 286 290 293 289 289 288 287 292 296 305 311 305 297 298 298 286 285 305 300 304 305 308 305 303 302 301 301 300 297 296 300 302 302 299 295 292 287 286 283 281 279 275 268 259 257 258 258
22 81 262 272 272 276 138 159 43 290 126 231 191 194 241 204 206 198 220 215 238 198 229 226 228 244 257 257 256 258 263 268 270 271 269 264 273 289 299 297 287 286 291 291 288 287 291 296 301 300 312 299 295 295 289 283 302 302 304 307 306 304 300 299 298 297 296 296 295 297 299 300 300 296 295 293 288 283 279 275 271 271 268 264 260 260 260
212 192 208 213 213 197 205 155 185 211 207 185 167 208 293 268 227 226 214 223 223 217 216 238 243 239 249 265 262 262 265 264 266 269 271 266 265 276 280 278 287 307 289 284 287 289 290 290 292 294 297 293 291 291 283 296 307 301 306 302 300 297 296 294 296 294 293 292 291 293 294 296 295 288 287 289 285 279 274 269 269 266 264 257 253 255 253
150 213 228 236 249 236 221 190 227 231 252 258 266 253 245 265 276 196 201 246 242 220 225 241 253 269 257 253 259 264 266 269 268 271 277 286 285 282 284 288 298 311 289 288 289 289 289 290 289 291 287 284 285 281 287 307 301 306 305 303 297 292 291 291 292 292 293 289 288 289 288 288 287 286 284 284 283 279 270 266 260 259 260 253 249 250 249
261 254 253 253 289 264 261 223 225 246 260 267 234 222 246 241 242 222 214 237 248 252 219 221 254 245 256 266 271 269 273 276 280 285 290 291 290 286 287 290 303 303 296 291 289 288 291 288 289 293 289 279 280 282 296 301 303 304 304 300 295 291 290 288 288 291 291 290 285 282 282 280 277 277 279 280 278 277 272 263 259 255 258 250 245 245 246
284 266 265 200 251 255 258 262 260 248 224 253 235 204 227 254 255 246 223 229 243 247 236 221 241 256 259 265 275 293 293 286 285 290 292 293 293 293 295 299 318 310 304 300 295 294 294 292 295 295 288 282 277 290 297 305 306 304 300 295 291 290 288 288 287 285 283 285 287 286 280 278 274 271 273 271 268 269 266 262 259 254 254 251 248 246 246
239 261 268 246 229 252 257 249 267 275 275 262 239 225 231 237 253 246 251 218 246 236 250 243 243 262 277 287 296 302 292 288 290 292 296 297 298 295 295 304 312 302 298 294 294 296 293 293 302 299 294 292 295 301 305 308 310 306 297 290 288 287 285 286 285 284 282 280 281 283 281 277 277 276 270 268 269 263 261 257 257 257 251 250 246 243 244
251 259 262 266 275 272 267 262 252 251 259 273 278 267 234 229 242 274 306 194 246 182 271 44 304 296 283 285 274 280 283 289 293 300 304 301 296 299 308 312 311 301 301 299 296 294 289 296 302 300 299 300 307 314 312 313 307 300 293 291 288 285 286 287 283 281 279 280 280 280 280 277 266 262 267 269 266 266 257 249 247 253 257 254 249 244 241
261 253 258 245 271 273 266 254 250 245 247 249 259 292 360 33 4 359 328 338 63 90 91 153 295 267 286 292 298 281 281 285 292 300 303 304 305 305 306 308 303 302 299 297 299 298 299 305 303 300 302 302 308 312 310 305 299 292 292 292 289 285 284 283 283 283 280 278 278 282 282 283 285 283 273 270 271 271 272 261 257 255 252 252 250 246 243
257 260 254 241 245 260 263 269 281 95 13 176 226 255 189 130 102 72 43 330 324 318 243 182 222 257 268 288 312 292 286 284 292 301 303 305 307 307 311 313 309 310 309 309 308 303 303 306 302 303 301 302 305 303 299 293 288 284 285 286 285 283 284 280 282 286 285 285 285 282 280 282 283 283 288 280 266 263 261 265 265 263 260 257 256 252 245
262 269 272 261 210 246 263 268 189 136 341 131 143 147 135 146 160 124 108 207 264 291 269 229 227 257 275 287 313 291 292 291 302 304 301 298 294 300 304 307 310 313 310 311 310 307 307 304 299 297 296 295 297 292 288 282 278 277 276 278 281 283 284 283 283 283 281 283 284 282 280 277 279 280 278 279 279 267 265 266 265 264 264 260 256 253 251
250 257 264 265 252 254 270 108 123 140 113 114 167 184 169 169 188 163 209 251 241 258 287 299 321 324 306 304 306 295 295 298 307 307 304 303 303 306 307 310 306 307 304 304 302 300 296 293 294 292 291 291 292 288 283 278 275 274 273 271 276 279 281 282 281 281 280 282 281 280 279 277 277 275 276 279 280 288 277 268 272 270 266 262 258 255 250
247 255 261 275 329 250 138 82 208 163 129 120 108 176 280 308 250 266 253 248 262 267 283 301 312 336 333 310 307 301 300 295 307 313 310 307 310 311 306 304 305 303 299 296 293 291 289 288 288 291 291 290 289 284 283 280 275 272 273 270 269 275 280 279 279 277 277 277 277 277 276 273 268 268 272 285 300 304 304 305 283 264 261 264 264 259 255
241 263 281 300 276 263 158 209 242 115 179 130 186 196 244 263 304 297 306 298 282 286 283 295 300 317 337 307 303 308 310 309 313 309 306 302 302 302 304 303 301 295 290 290 290 290 291 293 292 291 290 291 290 288 289 286 283 280 279 274 275 272 274 279 279 277 275 276 278 278 279 280 283 291 290 288 285 287 286 283 283 283 279 258 252 257 258
189 36 173 223 251 265 195 143 88 191 110 155 58 356 323 332 339 339 314 311 335 7 358 330 338 344 330 324 330 310 310 303 301 306 309 304 304 304 300 296 293 291 289 287 288 290 290 290 292 296 297 297 298 299 297 297 293 290 287 284 279 273 270 272 272 271 270 266 268 268 272 270 270 269 270 269 266 262 261 263 267 268 264 252 247 244 250
50 56 28 32 35 122 76 52 52 123 49 35 42 21 16 356 325 336 348 6 354 356 338 347 3 343 319 315 324 308 307 307 306 306 305 304 302 300 296 293 289 287 288 285 286 293 299 302 302 303 301 304 303 303 300 297 294 288 286 284 282 281 278 275 271 267 267 261 262 266 269 268 266 265 262 261 259 258 258 262 261 259 259 259 252 245 242
74 72 41 37 39 42 97 131 124 33 360 353 23 7 4 360 335 341 338 335 351 333 325 333 325 319 318 311 312 310 309 309 307 304 301 299 298 296 293 291 291 283 283 297 305 306 305 303 302 300 301 302 302 299 296 292 288 285 282 281 279 278 275 274 266 269 263 258 259 263 263 266 272 279 283 284 284 282 277 269 259 257 254 248 243 242 235
48 31 50 85 84 48 109 150 112 34 19 34 21 347 334 351 325 311 320 327 330 314 325 325 318 313 316 305 304 303 299 299 299 299 297 295 293 291 289 291 301 313 315 310 306 303 301 299 296 296 298 300 299 298 297 293 290 288 286 285 280 284 288 291 292 288 285 286 283 281 275 271 264 262 260 258 260 259 260 270 281 278 257 246 241 241 238
80 62 63 105 71 93 53 144 109 66 49 5 351 339 344 342 327 316 316 321 319 325 319 321 314 311 308 309 307 305 304 301 299 297 294 291 287 284 283 292 298 298 299 299 298 300 299 296 294 295 299 300 300 298 297 295 293 292 291 292 289 290 288 289 290 285 283 280 279 278 276 277 274 270 271 270 265 256 255 259 257 258 257 248 241 239 235
123 295 275 264 336 352 255 28 124 301 333 316 295 296 316 298 284 288 293 304 313 315 311 302 306 304 307 308 309 307 305 304 300 295 290 288 288 291 299 302 300 299 297 295 296 296 295 295 296 303 305 304 301 299 296 296 292 291 290 289 287 284 284 284 281 282 280 277 273 269 268 265 268 269 267 267 270 270 266 261 259 260 256 252 250 244 229
157 176 158 155 158 211 261 274 309 299 294 284 291 305 303 295 292 293 300 302 300 303 303 303 302 304 305 307 306 308 309 311 309 304 300 298 300 305 309 306 303 301 294 292 291 296 299 301 307 309 307 304 302 300 298 299 296 295 289 289 287 285 279 277 273 268 265 266 263 265 263 265 267 264 262 262 267 274 272 257 250 251 254 254 250 245 241
93 50 115 136 3 298 259 278 294 302 307 304 304 298 293 298 300 294 295 298 296 296 299 298 300 302 304 302 305 306 305 294 291 294 296 300 306 310 312 310 307 304 301 295 298 300 311 313 311 311 311 310 310 308 305 305 301 294 292 289 289 283 282 278 275 264 261 261 262 262 257 257 257 261 261 254 249 253 265 275 268 253 248 248 245 236 233
55 307 358 303 322 297 288 282 280 279 288 290 291 293 293 286 285 288 289 285 288 293 296 296 298 300 298 301 302 303 297 293 291 291 293 302 308 311 310 309 311 312 313 312 307 316 322 319 318 323 324 319 317 313 309 309 303 303 295 297 292 291 288 284 282 277 273 271 269 261 258 257 259 262 261 264 266 272 275 273 264 254 251 247 243 232 225
70 266 276 301 283 278 268 264 262 273 273 272 275 280 282 280 278 278 279 284 287 285 288 293 298 297 295 292 289 285 282 282 282 288 300 308 310 311 309 309 312 314 320 323 331 334 327 324 325 329 327 319 317 313 315 316 315 311 307 304 301 299 298 296 294 289 282 272 266 265 263 263 259 260 262 261 261 258 258 260 267 261 254 245 239 228 225
288 281 270 270 274 272 271 271 274 266 274 278 273 271 275 282 281 282 279 281 281 284 286 288 285 287 289 291 287 283 281 280 282 294 304 307 312 311 309 312 314 320 329 327 325 325 323 324 329 329 324 320 317 316 315 317 321 320 312 313 308 306 301 301 301 303 302 297 289 278 268 264 263 263 259 255 249 250 244 247 252 246 242 237 240 284 75
291 281 270 273 280 283 282 282 276 266 261 271 279 278 274 275 281 284 286 287 284 287 292 289 290 291 289 288 286 284 282 281 293 303 307 308 310 309 298 299 288 291 297 310 315 318 320 329 332 327 324 321 320 317 318 322 328 325 320 314 312 306 311 313 315 314 314 313 311 309 305 298 291 292 287 288 310 324 11 46 60 64 57 44 52 64 65
301 286 277 276 274 271 274 270 265 263 261 256 270 284 288 293 293 294 291 293 288 289 286 287 290 287 288 284 285 285 285 294 303 306 308 309 308 303 299 284 268 298 310 316 321 320 331 333 333 326 324 322 324 321 324 327 330 328 323 323 320 320 318 320 320 321 325 327 329 332 336 340 344 346 352 2 9 19 29 41 50 53 58 58 56 66 67
288 303 299 299 291 294 286 291 284 273 274 277 274 278 287 287 291 293 287 284 287 288 282 277 279 278 273 276 276 280 289 299 302 307 307 306 303 307 309 313 328 334 328 334 331 332 334 334 331 327 325 328 326 331 330 328 330 326 329 329 329 328 330 328 331 332 333 334 337 340 343 348 354 2 4 10 17 21 21 33 34 41 41 51 59 57 64
292 300 302 298 296 293 289 285 287 290 280 274 276 280 282 280 278 275 279 282 284 283 279 276 266 266 268 271 272 284 292 296 301 304 301 289 284 288 307 312 329 328 332 334 336 336 336 334 330 328 331 332 331 335 336 331 329 329 333 338 340 341 340 338 338 336 339 343 350 354 359 3 4 8 8 17 18 22 24 31 34 34 38 40 53 56 64
295 296 295 293 285 285 283 287 293 292 295 290 285 279 277 277 275 274 276 276 277 277 277 273 272 274 273 272 280 289 293 302 305 304 298 269 260 243 237 295 321 328 334 336 336 336 337 333 335 333 340 341 338 340 340 339 334 334 338 343 344 347 348 349 347 348 350 351 353 1 3 5 11 14 15 17 20 23 29 29 34 33 41 43 46 50 57
292 285 279 285 292 295 300 300 296 300 297 294 289 284 282 281 276 273 275 275 277 272 269 269 270 266 264 272 281 288 298 310 309 313 310 310 308 222 204 327 331 330 335 337 336 336 334 335 334 341 342 345 345 346 344 340 340 341 345 348 349 352 354 357 359 358 357 357 359 358 0 6 13 19 22 20 20 24 30 32 35 38 40 38 44 44 49
284 283 289 292 297 305 301 297 294 292 291 293 297 293 287 281 280 273 266 264 263 266 265 266 266 270 273 273 274 287 290 297 296 305 303 306 330 330 352 345 335 334 332 338 336 335 335 335 339 343 346 347 350 349 346 343 347 350 349 350 352 356 359 360 1 359 1 5 4 2 8 15 18 22 24 26 28 28 25 27 33 32 36 37 31 45 52
292 298 307 311 309 300 291 287 285 290 293 297 297 291 283 274 268 272 266 261 262 261 259 265 273 282 285 289 285 290 290 290 287 273 247 242 269 298 316 321 323 326 336 340 339 338 334 336 342 345 349 351 353 353 351 348 350 351 354 355 359 360 2 1 2 2 4 7 9 14 16 15 18 20 19 24 24 29 34 38 41 38 40 40 43 56 69
310 317 315 307 293 287 290 291 295 296 293 299 293 290 289 288 283 274 271 267 261 264 264 271 278 284 283 287 283 300 303 306 291 251 231 242 270 289 299 319 331 333 338 335 335 330 332 338 343 347 352 353 357 357 353 354 356 358 357 1 1 2 3 6 5 5 5 6 10 15 20 22 23 22 23 26 29 31 29 37 39 44 52 59 61 67 74
319 306 297 294 292 292 302 306 316 303 291 278 272 282 288 291 290 284 281 276 273 276 284 275 272 262 250 263 276 267 274 278 302 288 212 284 300 308 328 344 330 329 332 333 337 333 340 345 347 349 352 356 357 357 356 356 357 360 4 3 4 3 6 7 9 9 7 10 11 15 18 22 24 29 30 32 30 30 33 36 40 39 49 58 59 69 78
283 281 286 289 287 288 294 295 299 297 289 288 295 289 290 288 288 286 284 285 294 297 290 288 284 259 270 285 288 270 269 246 234 270 308 321 316 327 328 328 328 332 337 337 335 333 339 346 348 351 353 354 357 356 357 358 358 1 4 4 4 6 4 6 8 7 11 14 16 20 21 22 24 28 34 35 40 38 42 43 38 32 52 60 68 67 60
291 298 300 299 297 302 300 307 299 286 285 293 291 291 291 293 297 299 298 300 300 311 304 299 291 276 311 316 290 284 275 278 275 273 281 303 321 318 329 328 327 337 342 337 336 336 337 343 348 350 353 353 352 356 357 358 359 2 3 4 6 6 6 5 6 12 10 15 19 23 23 24 23 23 27 33 31 32 37 40 46 37 43 61 70 70 58
301 290 282 279 282 283 281 278 271 285 293 296 297 303 303 309 302 305 304 305 310 323 315 309 295 325 337 322 302 296 296 293 301 316 322 328 334 337 337 335 336 337 343 339 341 337 336 344 345 347 349 353 354 354 356 357 357 357 2 7 5 8 8 8 9 13 14 14 15 21 19 18 19 27 29 32 35 40 38 44 45 47 49 51 48 46 43
278 268 260 288 312 305 308 306 306 308 314 311 309 302 305 310 309 307 302 327 338 307 305 311 324 352 353 307 302 294 288 325 329 334 350 344 348 343 344 346 345 346 346 342 341 337 339 339 343 344 348 351 351 349 346 351 359 1 1 2 3 7 10 13 12 16 14 13 16 18 18 19 19 25 25 24 28 34 39 43 47 49 49 52 55 60 65